Home > Weather > Mahón > Past weeks

Flag for Spain Past Weather in Mahón, Menorca, Spain — Yesterday and Last 2 Weeks

Now
70 °F

Partly sunny.


Feels Like: 70 °F
Forecast: 59 / 71 °F
Wind: 13 mph from Southwest

Location: Menorca / Mahon

Current Time: May 30, 2016 at 12:54:28 PM

Latest Report: May 30, 2016 at 12:30 PM


Visibility: N/A

Pressure: 30.01 "Hg

Humidity: 78%

Dew Point: 63 °F

Location of MahónLocation

Past Weather in Mahón — Graph

°F

Mahón Temperature Yesterday

Maximum temperature yesterday: 75 °F (at 4:30 PM)
Minimum temperature yesterday: 63 °F (at 5:30 AM)
Average temperature yesterday: 69 °F

High & Low Weather Summary for the Past Weeks

 TemperatureHumidityPressure
High75 °F (May 26, 3:00 PM)100% (May 17, 6:00 AM)30.21 "Hg (May 17, 6:00 AM)
Low54 °F (May 18, 6:00 AM)38% (May 17, 12:00 PM)29.83 "Hg (May 26, 6:00 PM)
Average65 °F74%30.02 "Hg
* Reported May 15 11:00 AM — May 30 11:30 AM, Mahón, Weather by CustomWeather, © 2016

Note: Actual official high and low records may vary slightly from our data, if they occured in-between our weather recording intervals... More about our weather records

Advertising

Mahón Weather History for the Previous 24 Hours

Scroll right to see more
 ConditionsComfort  
Time TempWeatherWind HumidityBarometerVisibility
11:30 AM
Mon, May 30
70 °FPartly sunny.13 mph78%30.01 "HgN/A
11:00 AM68 °FPartly sunny.12 mph83%30.01 "HgN/A
10:30 AM68 °FPartly sunny.13 mph83%30.01 "HgN/A
10:00 AM68 °FScattered clouds.12 mph83%29.98 "HgN/A
9:30 AM66 °FScattered clouds.10 mph88%30.01 "HgN/A
9:00 AM66 °FScattered clouds.12 mph83%30.01 "HgN/A
8:30 AM66 °FPassing clouds.9 mph83%30.01 "HgN/A
8:00 AM66 °FSunny.7 mph88%29.98 "Hg10 mi
7:30 AM64 °FSunny.5 mph88%29.98 "Hg10 mi
7:00 AM63 °FClear.7 mph88%29.98 "Hg10 mi
6:30 AM61 °FClear.3 mph88%29.98 "Hg10 mi
6:00 AM61 °FClear.1 mph88%29.98 "Hg10 mi
5:30 AM59 °FPassing clouds.3 mph94%29.98 "HgN/A
5:00 AM61 °FPassing clouds.1 mph83%29.98 "HgN/A
4:30 AM61 °FCool.1 mph88%29.98 "HgN/A
4:00 AM61 °FCool.No wind88%29.98 "HgN/A
3:30 AM61 °FCool.1 mph88%29.98 "Hg6 mi
3:00 AM63 °FMild.5 mph83%30.01 "Hg6 mi
2:30 AM63 °FMild.8 mph88%30.01 "Hg6 mi
2:00 AM63 °FMild.6 mph83%30.01 "HgN/A
1:30 AM64 °FMild.7 mph83%30.01 "HgN/A
1:00 AM64 °FMild.8 mph83%30.01 "HgN/A
12:30 AM64 °FPassing clouds.8 mph83%30.01 "HgN/A
12:00 AM64 °FPassing clouds.8 mph83%30.01 "HgN/A
11:30 PM
Sun, May 29
66 °FPassing clouds.8 mph78%30.01 "HgN/A
11:00 PM66 °FPassing clouds.10 mph78%30.01 "HgN/A
10:30 PM66 °FPassing clouds.3 mph78%30.01 "HgN/A
10:00 PM64 °FPassing clouds.5 mph83%29.98 "HgN/A
9:30 PM66 °FPassing clouds.7 mph73%29.98 "HgN/A
9:00 PM66 °FPassing clouds.6 mph73%29.98 "HgN/A
8:30 PM68 °FPassing clouds.7 mph69%29.98 "HgN/A
8:00 PM70 °FPassing clouds.8 mph64%29.98 "HgN/A
7:30 PM70 °FPassing clouds.9 mph60%29.98 "HgN/A
7:00 PM72 °FPassing clouds.10 mph53%29.95 "HgN/A
6:30 PM73 °FPassing clouds.12 mph44%29.95 "HgN/A
6:00 PM75 °FPassing clouds.13 mph39%29.95 "HgN/A
5:30 PM73 °FPassing clouds.13 mph44%29.95 "HgN/A
5:00 PM75 °FPassing clouds.13 mph44%29.95 "HgN/A
4:30 PM75 °FPassing clouds.12 mph47%29.95 "HgN/A
4:00 PM73 °FPassing clouds.10 mph53%29.95 "HgN/A
3:30 PM73 °FPassing clouds.10 mph50%29.95 "HgN/A
3:00 PM73 °FScattered clouds.8 mph57%29.95 "HgN/A
2:30 PM73 °FScattered clouds.10 mph57%29.95 "HgN/A
2:00 PM73 °FScattered clouds.12 mph65%29.95 "HgN/A
1:30 PM72 °FScattered clouds.13 mph69%29.95 "HgN/A
1:00 PM73 °FScattered clouds.15 mph61%29.95 "HgN/A
12:30 PM73 °FPassing clouds.15 mph50%29.95 "HgN/A
12:00 PM73 °FPassing clouds.14 mph50%29.95 "HgN/A
Weather by CustomWeather, © 2016

See weather overviewHow to use our weather pages